sat.trackr.live / text

‹ back to catalog

ONEWEB-0606

NORAD 54670 · 2022-166AE

PAYLOAD ACTIVE UNKNOWN

§ Identity

Operator
Country
UK
Launch date
2022-12-08
Launch site
AFETR
Launch vehicle
Mass (kg)
RCS (m²)

Purposes: comms

External: N2YO · Heavens-Above · Gunter

§ Orbital elements

Epoch: 2026-09-20T03:48:41.488992Z

Period
108.94 min
Inclination
87.9280°
Eccentricity
0.0001994
Mean motion
13.21824452 rev/d
Perigee alt
1,176.3 km
Apogee alt
1,179.3 km
Semi-major
7,555.9 km
B*
5.8205e-5
RAAN
225.0940°
Arg perigee
76.2143°
Mean anomaly
283.9213°
Rev number
18,411

§ Raw data

ONEWEB-06061 54670U 22166AE  26263.15881353  .00000037  00000+0  58205-4 0  99952 54670  87.9280 225.0940 0001994  76.2143 283.9213 13.21824452184111

JSON: /api/v1/satellites/54670 · /tle

For live sub-satellite position, see the globe view (requires WebGL).

§ Visibility from observer

Set your observer location to see the next 7 days of passes ≥ 10°. The values pass through the URL so the page stays shareable.

No JS? Fill the form by hand. The geolocation button needs JavaScript.